This demonstration page uses our WeatherBlox Daily Observations layout. Learn more.

Left ArrowRight Arrow

Hourly Observations for May 3, 2020

Temp ( °F °C ) Dew Point ( °F °C ) Humidity (%) Winds ( mph kmh ) Pressure ( in mb ) Visibility ( mi km ) Precip ( " mm )
12:56 am 00:56 Cloudy with Light Rain 55 12.8 45 7.2 69 69 NW 5 7 30.09 1019 10 16 0.00 0.00
1:56 am 01:56 Clear 52 11.1 45 7.2 77 77 NE 3 6 30.03 1017 10 16 0.00 0.00
2:56 am 02:56 Mostly Cloudy 53 11.7 45 7.2 74 74 W 7 11 30.06 1018 10 16 0.00 0.00
3:56 am 03:56 Cloudy 55 12.8 44 6.7 67 67 W 3 6 30.04 1017 10 16 0.00 0.00
4:56 am 04:56 Clear 52 11.1 44 6.7 75 75 N 5 7 30.03 1017 10 16 0.00 0.00
5:56 am 05:56 Mostly Cloudy 52 11.1 44 6.7 75 75 Calm 30.04 1017 10 16 0.00 0.00
6:56 am 06:56 Sunny 48 8.9 42 5.6 80 80 NW 7 11 30.06 1018 10 16 0.00 0.00
7:56 am 07:56 Partly Cloudy 53 11.7 45 7.2 74 74 NNW 7 11 30.06 1018 10 16 0.00 0.00
8:56 am 08:56 Sunny 59 15 45 7.2 60 60 NNE 8 13 30.04 1017 10 16 0.00 0.00
9:56 am 09:56 Sunny 65 18.3 38 3.3 37 37 E 8 13 30.04 1017 10 16 0.00 0.00
10:56 am 10:56 Partly Cloudy 67 19.4 38 3.3 35 35 VRB 5 7 30.04 1017 10 16 0.00 0.00
11:56 am 11:56 Sunny 68 20 36 2.2 31 31 VRB 3 6 30.03 1017 10 16 0.00 0.00
12:56 pm 12:56 Sunny 70 21.1 39 3.9 32 32 ESE 6 9 30.00 1016 10 16 0.00 0.00
1:56 pm 13:56 Partly Cloudy 73 22.8 40 4.4 30 30 SE 14 22 29.97 1015 10 16 0.00 0.00
2:56 pm 14:56 Mostly Sunny 74 23.3 41 5 31 31 S 5 7 29.96 1015 10 16 0.00 0.00
3:56 pm 15:56 Partly Cloudy 75 23.9 42 5.6 31 31 VRB 7 11 29.94 1014 10 16 0.00 0.00
4:56 pm 16:56 Sunny 77 25 43 6.1 30 30 ESE 14 22 29.91 1013 10 16 0.00 0.00
5:56 pm 17:56 Mostly Cloudy 74 23.3 42 5.6 32 32 SSE 9 15 29.91 1013 10 16 0.00 0.00
6:56 pm 18:56 Mostly Sunny 74 23.3 41 5 31 31 SE 9 15 29.92 1013 10 16 0.00 0.00
7:56 pm 19:56 Mostly Sunny 71 21.7 42 5.6 35 35 ESE 8 13 29.93 1013 10 16 0.00 0.00
8:56 pm 20:56 Partly Cloudy 68 20 42 5.6 39 39 SE 12 19 29.92 1013 10 16 0.00 0.00
9:56 pm 21:56 Clear 66 18.9 42 5.6 42 42 SE 10 17 29.93 1014 10 16 0.00 0.00
10:56 pm 22:56 Partly Cloudy 66 18.9 42 5.6 42 42 SE 13 20 29.93 1014 10 16 0.00 0.00
11:56 pm 23:56 Cloudy with Light Rain 63 17.2 46 7.8 54 54 SSE 10 17 29.93 1014 10 16 0.00 0.00

Powered by AerisWeather